Volver al catálogo

STARLINK-2250

ActivoComunicacionesVLEO
NORAD 48593·PAYLOAD·🇺🇸 United States

Lanzado May 15, 2021 desde Cape Canaveral Space Force Station

Loading…

Próximos Pases (próximas 24 horas)

TLE

ActualizadoSource: CelesTrak SupGP

Época: Sep 15, 2026, 01:24 UTC

1 48593C 21041AS  26258.05881944  .00047031  00000+0  15122-2 0  2584
2 48593  53.1588 338.6278 0001292  93.6628 225.5274 15.31682136    10

Sigue STARLINK-2250 en tiempo real con AllMySat

Download on the App Store